ORBCOMM FM 5 DEB

Satellite information

Favourite Embed

Satellite Type and Status

DEBRISIN ORBIT

Key statistics

Satellite ORBCOMM FM 5 DEB at a glance.

Uptime

10058

Days in orbit

Revolutions

≈ 14.3

Per day

Orbit

LEO

Low Earth Orbit

Inclination

45.0

Latest

Satellite identification and parameters

Extended collection of information and parameters for ORBCOMM FM 5 DEB.

Object identification

Identified? True

Debris? True

Object name: ORBCOMM FM 5 DEB

International designator: 1997-084W

Object number (NORAD): 51092

Object ID (CCSDS): 51092

Country: ORBITAL TELECOMMUNICATIONS SATELLITE (GLOBALSTAR) (ORB)

Current information (Y/N): Y

RCS size: SMALL

Orbital parameters

Period: 100.392 minutes

Inclination: 45.0257 deg

SMA: 7155.269 km

Apoapsis: 804.574 km

Periapsis: 749.695 km

RAAN: 50.6728 deg

Eccentricy: 0.0038349

Argument of periapsis: 30.1518 deg

Mean anomaly: 330.1526 deg

Mean motion: 14.34378542 rev/day

Mean motion (dot): 0.00000307 rev/day2

B* drag term: 0.00015693 1/REarth

Two-line elements (TLE)

Creation date: June 28, 2025, 9:36 a.m.

Reference frame: TEME

Reference center: EARTH

Epoch: June 27, 2025, 10:16 p.m. UTC

TLE line 0: 0 ORBCOMM FM 5 DEB

TLE line 1: 1 51092U 97084W 25178.92806248 .00000307 00000-0 15693-3 0 9994

TLE line 2: 2 51092 45.0257 50.6728 0038349 30.1518 330.1526 14.34378542174176

Live tracking on map

Real-time ground track for satellite ORBCOMM FM 5 DEB.

In-orbit conjunctions

A list of the most updated potential collisions computed for object ORBCOMM FM 5 DEB.

Target Orbit TCA Probability of collision Miss distance Type
CZ-6A DEB LEO 2025-05-21 21:24:47 0.000111827 47.0 (m) DEBRIS
FENGYUN 1C DEB SSO 2024-11-07 19:56:40 0.0001958472 316.0 (m) DEBRIS

Associated space launch

ORBCOMM FM 5 DEB was lifted into orbit during the mission ‘Pegasus XL HAPS | Orbcomm-A1 - A8’, on board a Pegasus XL HAPS space rocket.

The launch took place on Dec. 23, 1997, 7:11 p.m. from Wallops Flight Facility.

For more information about the launch, click the button.

Launch to space Pegasus XL HAPS | Orbcomm-A1 - A8
Pegasus XL HAPS | Orbcomm-A1 - A8

Agency: N/A

Status: Launch Successful

Launch date: Dec. 23, 1997, 7:11 p.m. UTC

Rocket: Pegasus XL HAPS

Launch pad: Wallops Flight Facility

Location: Air launch to orbit

...

Latest news about this satellite

There are no fresh news available about this satellite. Check back as we update our databases every day.


Newsletter sign-up

Weekly statistics, charts and insights to help you stay on top of the space industry.